Tracking 28790 objects as of 19-Apr-2024
HD Live streaming from Space Station
objects crossing your sky now

FREEDOM


FREEDOM is no longer on orbit
FREEDOM is classified as:


NORAD ID: 41930
Int'l Code: 1998-067KS
Perigee: N/A
Apogee: N/A
Inclination: N/A
Period: N/A
Semi major axis: N/A
RCS: N/A
Launch date: November 20, 1998
Source: Japan (JPN)
Launch site: TYURATAM MISSILE AND SPACE COMPLEX (TTMTR)
Decay date: 2017-02-05
Your satellite tracking list
Your tracking list is empty




NASA's NSSDC Master Catalog

Two Line Element Set (TLE):
1 41930U 98067KS  17036.82401924  .10543534  11630-4  66545-2 0  9992
2 41930  51.6370 330.4291 0018165 124.4217 237.6627 16.16537350  3109
Source of the keplerian elements: Caltech